When you browse on this site, cookies collect data to enhance your experience and personalize the content and advertising you see.
Visit our Privacy Policy to learn more. By continuing to use the site, you agree to this use of cookies and data.
EN

Hourly Weather Prosperowo

Today, 9 August, Sunday

Time Temperature Precipitation Wind Pressure Humidity
00:00 +23°C° 0.5 mm 1 mps 754 mmHg 77%
01:00 +23°C° 0 mm 2 mps 754 mmHg 80%
02:00 +23°C° 0.4 mm 1 mps 754 mmHg 81%
03:00 +23°C° 0.4 mm 1 mps 754 mmHg 82%
04:00 +20°C° 0.4 mm 0 mps 754 mmHg 83%
05:00 +23°C° 0 mm 1 mps 754 mmHg 80%
06:00 +24°C° 0 mm 1 mps 754 mmHg 77%
07:00 +26°C° 0 mm 1 mps 754 mmHg 72%
08:00 +27°C° 0 mm 1 mps 754 mmHg 66%
09:00 +28°C° 0 mm 1 mps 754 mmHg 60%
10:00 +30°C° 0 mm 2 mps 754 mmHg 55%
11:00 +31°C° 0 mm 1 mps 754 mmHg 50%
12:00 +32°C° 0 mm 1 mps 754 mmHg 45%
13:00 +32°C° 0 mm 1 mps 754 mmHg 44%
14:00 +32°C° 0 mm 1 mps 753 mmHg 44%
15:00 +32°C° 0 mm 2 mps 753 mmHg 44%
16:00 +32°C° 0 mm 2 mps 753 mmHg 45%
17:00 +29°C° 1.3 mm 2 mps 753 mmHg 58%
18:00 +26°C° 1.3 mm 3 mps 753 mmHg 70%
19:00 +22°C° 1.3 mm 3 mps 753 mmHg 83%
20:00 +23°C° 0.4 mm 2 mps 753 mmHg 84%
21:00 +23°C° 0.4 mm 2 mps 753 mmHg 84%
22:00 +23°C° 0.4 mm 2 mps 753 mmHg 85%
23:00 +21°C° 0.1 mm 2 mps 753 mmHg 86%

Tomorrow, 10 August, Monday

Time Temperature Precipitation Wind Pressure Humidity
00:00 +21°C° 0.1 mm 2 mps 753 mmHg 86%
01:00 +20°C° 0.1 mm 3 mps 753 mmHg 87%
02:00 +20°C° 0 mm 3 mps 753 mmHg 89%
03:00 +20°C° 0 mm 2 mps 753 mmHg 91%
04:00 +19°C° 0 mm 2 mps 753 mmHg 93%
05:00 +20°C° 0 mm 3 mps 753 mmHg 90%
06:00 +21°C° 0 mm 3 mps 753 mmHg 87%
07:00 +22°C° 0 mm 3 mps 753 mmHg 83%
08:00 +25°C° 0 mm 3 mps 753 mmHg 75%
09:00 +26°C° 0 mm 3 mps 753 mmHg 67%
10:00 +28°C° 0 mm 3 mps 754 mmHg 59%
11:00 +29°C° 0 mm 3 mps 753 mmHg 55%
12:00 +30°C° 0 mm 3 mps 753 mmHg 50%
13:00 +30°C° 0 mm 3 mps 753 mmHg 46%
14:00 +30°C° 0 mm 3 mps 753 mmHg 46%
15:00 +30°C° 0 mm 3 mps 753 mmHg 46%
16:00 +30°C° 0 mm 2 mps 753 mmHg 46%
17:00 +29°C° 0.1 mm 3 mps 753 mmHg 53%
18:00 +27°C° 0.1 mm 4 mps 753 mmHg 60%
19:00 +26°C° 0.1 mm 4 mps 753 mmHg 67%
20:00 +23°C° 0 mm 4 mps 753 mmHg 71%
21:00 +22°C° 0 mm 4 mps 754 mmHg 76%
22:00 +21°C° 0 mm 4 mps 754 mmHg 80%
23:00 +20°C° 0 mm 4 mps 754 mmHg 83%

Day after tomorrow, 11 August, Tuesday

Time Temperature Precipitation Wind Pressure Humidity
00:00 +19°C° 0 mm 4 mps 754 mmHg 85%
01:00 +18°C° 0 mm 3 mps 754 mmHg 88%
02:00 +18°C° 0 mm 3 mps 754 mmHg 88%
03:00 +18°C° 0 mm 3 mps 754 mmHg 89%
04:00 +17°C° 0 mm 3 mps 754 mmHg 89%
05:00 +18°C° 0 mm 3 mps 755 mmHg 84%
06:00 +19°C° 0 mm 3 mps 755 mmHg 78%
07:00 +20°C° 0 mm 3 mps 755 mmHg 73%
08:00 +22°C° 0 mm 3 mps 755 mmHg 65%
09:00 +24°C° 0 mm 3 mps 755 mmHg 57%
10:00 +26°C° 0 mm 3 mps 755 mmHg 49%
11:00 +27°C° 0 mm 4 mps 755 mmHg 47%
12:00 +28°C° 0 mm 4 mps 755 mmHg 45%
13:00 +28°C° 0 mm 4 mps 755 mmHg 43%
14:00 +28°C° 0 mm 4 mps 755 mmHg 45%
15:00 +28°C° 0 mm 4 mps 755 mmHg 46%
16:00 +27°C° 0 mm 5 mps 755 mmHg 48%
17:00 +26°C° 0 mm 4 mps 755 mmHg 54%
18:00 +23°C° 0 mm 4 mps 755 mmHg 60%
19:00 +21°C° 0 mm 4 mps 755 mmHg 66%
20:00 +20°C° 0 mm 4 mps 755 mmHg 68%
21:00 +19°C° 0 mm 4 mps 755 mmHg 70%
22:00 +18°C° 0 mm 4 mps 756 mmHg 72%
23:00 +17°C° 0 mm 4 mps 756 mmHg 75%

12 August, Wednesday

Time Temperature Precipitation Wind Pressure Humidity
00:00 +17°C° 0 mm 3 mps 756 mmHg 77%
01:00 +16°C° 0 mm 3 mps 756 mmHg 80%
02:00 +14°C° 0 mm 3 mps 756 mmHg 82%
03:00 +14°C° 0 mm 3 mps 756 mmHg 84%
04:00 +14°C° 0 mm 2 mps 756 mmHg 86%
05:00 +16°C° 0 mm 3 mps 756 mmHg 81%
06:00 +17°C° 0 mm 3 mps 756 mmHg 76%
07:00 +18°C° 0 mm 3 mps 756 mmHg 71%
08:00 +20°C° 0 mm 3 mps 756 mmHg 64%
09:00 +21°C° 0 mm 3 mps 756 mmHg 56%
10:00 +23°C° 0 mm 4 mps 757 mmHg 48%
11:00 +25°C° 0 mm 4 mps 756 mmHg 45%
12:00 +26°C° 0 mm 3 mps 756 mmHg 42%
13:00 +26°C° 0 mm 3 mps 756 mmHg 39%
14:00 +26°C° 0 mm 3 mps 756 mmHg 39%
15:00 +26°C° 0 mm 3 mps 755 mmHg 38%
16:00 +27°C° 0 mm 3 mps 755 mmHg 38%
17:00 +25°C° 0 mm 3 mps 755 mmHg 43%
18:00 +23°C° 0 mm 2 mps 755 mmHg 48%
19:00 +21°C° 0 mm 2 mps 755 mmHg 53%
20:00 +19°C° 0 mm 3 mps 755 mmHg 60%
21:00 +18°C° 0 mm 3 mps 755 mmHg 67%
22:00 +17°C° 0 mm 3 mps 755 mmHg 73%
23:00 +16°C° 0 mm 3 mps 755 mmHg 77%

13 August, Thursday

Time Temperature Precipitation Wind Pressure Humidity
00:00 +16°C° 0 mm 2 mps 755 mmHg 80%
01:00 +15°C° 0 mm 2 mps 755 mmHg 84%
02:00 +15°C° 0 mm 2 mps 755 mmHg 84%
03:00 +15°C° 0 mm 2 mps 755 mmHg 85%
04:00 +15°C° 0 mm 2 mps 754 mmHg 86%
05:00 +16°C° 0 mm 2 mps 755 mmHg 81%
06:00 +17°C° 0 mm 2 mps 755 mmHg 77%
07:00 +18°C° 0 mm 3 mps 755 mmHg 73%
08:00 +20°C° 0 mm 3 mps 755 mmHg 67%
09:00 +22°C° 0 mm 3 mps 755 mmHg 60%
10:00 +24°C° 0 mm 3 mps 755 mmHg 53%
11:00 +25°C° 0 mm 3 mps 754 mmHg 50%
12:00 +26°C° 0 mm 3 mps 754 mmHg 47%
13:00 +26°C° 0 mm 3 mps 754 mmHg 44%
14:00 +26°C° 0 mm 3 mps 754 mmHg 44%
15:00 +26°C° 0 mm 3 mps 753 mmHg 44%
16:00 +26°C° 0 mm 3 mps 753 mmHg 44%
17:00 +25°C° 0 mm 3 mps 753 mmHg 49%
18:00 +22°C° 0 mm 3 mps 753 mmHg 54%
19:00 +21°C° 0 mm 3 mps 753 mmHg 59%
20:00 +19°C° 0 mm 3 mps 753 mmHg 62%
21:00 +18°C° 0 mm 3 mps 753 mmHg 64%
22:00 +17°C° 0 mm 3 mps 753 mmHg 66%
23:00 +16°C° 0 mm 3 mps 753 mmHg 68%

14 August, Friday

Time Temperature Precipitation Wind Pressure Humidity
00:00 +16°C° 0 mm 3 mps 753 mmHg 70%
01:00 +14°C° 0 mm 3 mps 753 mmHg 72%
02:00 +14°C° 0 mm 3 mps 753 mmHg 73%
03:00 +14°C° 0 mm 3 mps 753 mmHg 75%
04:00 +13°C° 0 mm 3 mps 753 mmHg 76%
05:00 +14°C° 0 mm 3 mps 753 mmHg 74%
06:00 +16°C° 0 mm 3 mps 753 mmHg 72%
07:00 +17°C° 0 mm 4 mps 753 mmHg 69%
08:00 +19°C° 0 mm 4 mps 753 mmHg 63%
09:00 +21°C° 0 mm 4 mps 753 mmHg 57%
10:00 +23°C° 0 mm 4 mps 753 mmHg 51%
11:00 +23°C° 0 mm 4 mps 753 mmHg 47%
12:00 +25°C° 0 mm 4 mps 753 mmHg 43%
13:00 +26°C° 0 mm 4 mps 753 mmHg 40%
14:00 +26°C° 0 mm 4 mps 752 mmHg 40%
15:00 +26°C° 0 mm 4 mps 752 mmHg 41%
16:00 +26°C° 0 mm 4 mps 752 mmHg 42%
17:00 +25°C° 0 mm 3 mps 752 mmHg 48%
18:00 +22°C° 0 mm 3 mps 752 mmHg 55%
19:00 +20°C° 0 mm 2 mps 752 mmHg 62%
20:00 +19°C° 0 mm 3 mps 752 mmHg 64%
21:00 +18°C° 0 mm 3 mps 752 mmHg 67%
22:00 +17°C° 0 mm 3 mps 752 mmHg 69%
23:00 +17°C° 0 mm 3 mps 752 mmHg 71%
Show more